Location: Pilipovskiye Korichintsy
(49.1833°N, 27.4667°E)
Time: 02:37:27
(UTC+00:00)

Cosmos 921 Rocket - Visible Passes

Search period start: 23 October 2020 00:00
Search period end: 02 November 2020 00:00
Orbit: 572 x 632 km, 75.8° (Epoch: 22 October)

Date Brightness Start Highest point End Pass type
(mag) Time Alt. Az. Time Alt. Az. Time Alt. Az.
23 Oct 6.0 03:55:55 10° NNE 03:56:56 11° NE 03:57:58 10° ENE visible
24 Oct 5.7 04:06:32 10° NNE 04:09:16 16° NE 04:12:01 10° E visible
28 Oct 5.9 03:16:18 10° NNE 03:18:43 14° NE 03:21:08 10° E visible
29 Oct 5.6 03:27:35 10° N 03:31:00 20° NE 03:34:23 10° ESE visible
30 Oct 5.0 03:39:10 10° N 03:43:11 30° ENE 03:47:10 10° ESE visible
31 Oct 4.2 03:50:54 10° N 03:55:17 47° ENE 03:59:38 10° SE visible
01 Nov 6.0 02:26:09 10° NNE 02:28:10 13° NE 02:30:11 10° ENE visible
01 Nov 3.3 04:02:45 10° NNW 04:07:18 76° ENE 04:11:48 10° SSE visible
